Theta_e
326 327 330 330 332 334 334 334 335 334 333 334 334 334 336 338 337 334 335 335 335 335 333 333 334 334 333 331 330 330 329 327 326 328 329 329 330 330 330 331 330 329 329 329 329 330 331 331 331 330 330 330 329 329 329 329 329 329 328 328 327 326 324 324 326 326 326 327 328 328 328 329 328 328 326 323 321 320 320 321 322 322 325 327 328
330 330 328 329 331 332 332 332 333 333 332 333 334 335 336 336 335 333 333 333 331 331 332 333 334 333 331 330 328 329 328 324 324 326 329 330 330 330 330 330 330 329 329 328 328 329 330 329 329 330 330 330 329 329 329 328 328 328 327 326 326 325 324 325 326 326 328 328 328 328 329 328 327 327 326 324 321 320 321 321 322 322 323 327 328
334 333 329 327 329 331 331 331 332 334 333 334 335 336 336 334 333 331 331 330 329 329 329 330 331 330 329 329 328 328 326 323 323 326 328 328 329 328 327 328 328 329 329 329 329 329 329 328 328 329 329 330 329 329 330 329 329 329 327 327 326 325 325 326 327 327 328 327 327 329 328 327 328 326 325 324 321 319 320 320 320 320 321 323 325
334 336 331 327 327 330 331 330 331 333 332 333 334 335 334 332 331 330 329 328 327 326 326 327 329 330 329 329 327 326 325 324 324 325 326 326 326 325 325 325 325 326 327 328 328 327 326 326 327 328 329 330 329 329 330 329 329 328 328 327 327 325 326 326 327 327 327 327 327 327 325 327 331 328 324 324 321 319 319 320 321 321 320 320 321
331 334 333 328 327 328 329 330 331 332 332 333 334 335 333 331 331 329 327 326 325 325 325 326 329 329 328 327 325 324 323 323 323 322 322 323 322 323 322 322 322 322 323 324 325 326 326 326 326 327 328 328 328 328 328 328 327 327 327 328 327 326 327 326 326 325 326 326 325 326 326 328 331 327 323 323 323 322 319 319 321 321 319 318 319
330 331 331 328 326 327 328 330 331 332 332 333 335 336 333 330 330 327 325 324 324 324 324 325 328 327 327 325 324 323 322 322 321 320 320 320 320 320 320 320 319 319 319 321 323 324 323 324 325 326 327 327 327 327 327 327 327 326 326 327 327 327 327 326 325 323 324 324 324 325 326 327 328 325 323 323 323 322 318 316 316 315 315 315 316
332 330 330 328 326 326 327 328 332 332 332 333 334 334 332 330 329 326 325 324 323 324 323 324 326 326 326 325 323 322 322 321 320 320 320 320 320 320 319 319 319 318 319 320 322 324 323 322 323 325 326 326 326 326 325 326 326 326 326 326 326 326 326 326 325 323 323 323 323 325 326 325 325 324 324 325 324 323 319 314 311 312 314 315 315
330 331 333 330 325 326 326 328 331 332 331 332 332 332 330 328 327 326 325 323 322 323 323 323 324 325 325 323 323 322 321 320 320 320 320 320 319 319 318 319 319 319 319 319 322 324 323 320 320 324 325 324 324 325 325 325 326 325 326 325 326 326 327 327 325 324 324 323 323 326 326 325 324 324 324 324 326 329 324 315 310 312 314 313 312
329 331 334 328 324 326 327 327 329 332 332 331 330 328 326 324 324 324 325 324 323 323 322 322 324 325 325 323 322 320 319 319 319 319 319 319 318 318 318 318 319 319 319 319 320 321 320 318 319 322 323 323 323 324 325 325 325 325 326 326 327 327 327 327 326 325 325 325 324 323 321 321 321 322 321 319 321 324 323 317 312 311 312 311 310
329 333 331 324 323 326 326 327 328 329 331 330 327 325 323 324 324 325 325 324 323 324 323 323 324 325 324 322 320 318 317 318 319 319 318 318 318 317 317 317 317 318 318 318 319 319 318 318 319 321 321 321 322 323 323 323 323 324 325 326 327 327 327 327 327 326 326 325 324 321 316 316 315 314 312 312 312 313 314 313 310 309 312 312 310
329 331 327 320 320 323 324 325 326 327 329 328 326 325 325 325 325 325 325 323 322 321 322 323 324 325 324 321 319 317 316 316 317 318 318 318 316 316 317 316 317 317 317 318 318 317 317 318 319 320 321 321 321 321 320 321 323 323 323 324 325 325 326 326 326 325 324 323 320 318 315 314 312 310 308 308 308 308 311 311 308 308 310 311 311
327 328 327 322 321 321 319 322 324 325 327 326 328 327 326 325 325 325 323 322 321 320 320 321 322 323 321 320 319 316 313 313 315 317 318 317 315 316 316 316 317 317 318 317 317 317 317 318 319 319 320 320 320 320 320 321 322 320 319 319 320 323 323 324 323 322 320 318 315 313 312 311 310 309 308 307 307 306 308 309 307 308 309 309 310
327 326 327 327 324 320 318 320 321 323 324 325 328 327 326 326 325 323 321 321 322 321 321 322 321 321 320 319 319 316 313 312 313 315 317 318 316 315 315 315 317 317 317 316 316 316 316 318 319 319 319 318 318 318 318 319 319 317 316 315 315 317 318 318 318 316 314 313 311 309 309 308 308 308 306 305 305 303 304 306 306 307 307 307 308
326 326 328 327 322 319 320 321 321 322 323 324 327 326 325 326 323 323 324 323 323 322 322 321 320 320 320 319 318 316 314 313 312 313 316 318 317 316 315 315 315 315 314 313 312 312 311 314 317 316 316 315 315 315 315 316 316 315 313 310 310 311 312 311 311 310 309 308 307 306 305 304 304 305 304 303 303 304 305 305 305 305 305 304 305
325 325 327 325 321 321 321 322 324 324 322 323 327 326 324 325 324 325 326 323 321 323 322 320 320 319 319 318 317 316 315 314 313 313 315 317 316 316 316 314 314 313 312 311 311 308 307 309 310 309 308 308 308 308 308 310 311 309 306 304 305 306 306 307 306 305 303 302 302 301 301 300 301 302 303 304 305 305 306 305 305 307 307 305 305
326 327 330 327 322 322 322 321 325 325 321 323 327 326 324 325 324 325 324 321 320 322 323 321 321 320 319 319 317 317 316 315 314 314 315 315 314 314 314 313 314 313 312 312 310 308 307 307 307 305 303 302 302 303 304 305 305 304 303 303 303 303 303 304 303 301 301 300 300 299 299 299 301 303 304 305 305 306 307 307 306 307 309 310 310
326 329 333 331 325 322 322 321 322 323 320 321 325 327 326 325 324 323 322 321 321 321 322 321 319 319 319 319 318 317 316 314 313 314 315 314 313 313 312 312 312 312 312 311 310 309 309 308 308 306 303 302 303 304 304 303 304 304 304 303 303 302 302 303 303 302 301 301 302 301 301 302 303 305 306 306 306 306 306 307 307 306 307 310 313
324 325 325 325 321 319 320 319 319 320 319 320 324 327 327 326 324 322 322 322 321 320 321 320 318 319 319 319 318 317 315 313 313 314 315 314 313 313 312 311 311 311 312 311 310 310 310 310 309 308 306 305 304 303 303 303 304 304 304 303 302 302 302 303 303 303 303 302 303 303 303 304 305 306 306 306 305 305 305 306 307 307 306 307 309
325 324 323 320 316 316 320 320 320 320 319 320 322 324 326 326 325 324 323 323 321 320 320 319 319 319 319 318 318 317 315 313 312 314 316 315 313 312 311 310 310 311 311 311 311 311 311 311 310 310 310 308 307 304 303 304 306 305 305 304 303 302 302 303 303 303 303 302 302 303 304 305 306 305 305 305 305 305 305 305 306 307 305 305 305
322 321 323 320 313 315 320 320 321 321 319 319 321 322 324 325 325 324 323 321 320 319 320 320 319 319 319 317 317 318 316 314 313 314 316 316 314 313 311 309 309 310 310 310 310 311 311 311 311 311 311 311 310 308 305 306 307 307 307 306 305 304 304 303 303 303 304 303 302 303 304 304 304 304 304 304 305 305 305 305 306 305 305 304 304
320 318 320 317 312 315 320 320 321 321 320 320 321 322 323 323 324 323 322 321 320 319 320 320 319 319 318 315 315 317 318 315 313 314 317 317 315 314 313 311 310 309 309 309 309 310 310 311 310 311 312 311 311 310 308 307 308 308 309 309 307 306 306 305 305 304 304 304 303 303 304 303 303 303 303 303 304 305 305 305 305 305 304 304 304
319 317 318 314 310 314 319 321 321 321 320 321 321 322 322 322 322 322 322 322 321 320 320 319 319 318 316 312 312 315 318 318 316 315 317 317 317 316 314 313 312 311 310 308 308 310 310 310 309 310 312 312 311 311 309 308 309 309 310 309 309 308 308 308 307 307 305 305 305 305 305 304 304 304 303 303 304 304 305 305 305 305 305 304 304
318 317 315 311 309 312 316 319 321 322 322 321 321 322 322 321 321 321 321 321 321 320 320 319 318 317 315 313 312 313 316 319 318 317 318 318 317 317 316 314 313 312 311 310 309 310 311 311 309 309 311 311 311 311 310 309 310 310 310 310 310 309 309 309 309 308 308 306 306 306 305 305 305 305 305 305 304 304 304 305 305 305 305 304 303
316 315 311 308 308 309 310 311 313 315 318 320 321 322 322 321 320 320 320 320 320 320 319 318 317 317 316 314 314 314 316 318 318 318 318 318 318 318 317 316 314 314 312 311 311 311 312 313 311 309 309 309 310 311 310 310 310 310 310 310 310 310 310 310 309 309 309 308 308 307 306 306 305 305 305 305 305 305 304 304 305 305 305 304 302
314 313 312 309 307 306 305 305 306 309 312 315 317 319 321 322 321 320 320 319 320 320 319 318 317 315 315 314 315 316 317 317 317 317 317 318 318 318 317 317 315 314 313 312 312 312 312 313 313 311 310 309 309 310 310 311 311 311 310 310 310 310 311 310 310 310 310 309 309 309 308 307 306 306 306 306 306 305 305 304 304 304 304 303 302
311 311 311 309 306 303 303 303 304 306 308 311 313 315 317 320 321 321 321 320 320 320 319 318 316 315 314 315 315 315 316 317 316 317 317 318 318 318 317 317 316 315 314 313 313 313 313 314 314 313 312 312 311 311 311 311 312 312 311 311 311 310 311 311 311 310 310 310 310 310 309 308 308 307 307 306 306 306 305 305 304 304 304 302 301
307 306 306 306 305 302 301 302 302 303 305 307 311 313 315 316 317 319 320 321 321 321 320 318 317 316 315 315 315 316 317 318 317 317 317 317 318 318 317 317 316 316 315 314 314 314 314 314 314 314 314 314 314 314 313 313 313 312 312 312 312 311 311 311 312 312 311 311 311 311 310 309 309 308 308 307 307 306 306 306 305 304 303 302 301
305 304 305 304 304 302 300 301 302 302 302 304 307 310 313 315 316 316 317 319 320 321 320 319 318 317 317 316 317 317 318 319 319 318 318 318 317 317 317 317 317 316 316 315 315 315 315 315 316 315 314 315 315 314 314 315 316 315 314 314 313 314 314 314 314 313 313 312 312 312 311 311 310 309 309 308 307 307 307 306 305 304 303 302 301
305 305 305 305 304 302 301 301 301 302 302 303 304 305 308 312 315 316 317 317 318 319 319 319 319 318 318 318 317 318 318 319 319 319 318 318 318 317 317 317 317 316 316 316 315 315 315 315 315 315 314 314 314 314 315 317 317 317 316 315 315 315 315 315 316 315 315 315 314 314 314 313 312 310 309 309 308 307 307 306 305 305 304 302 302
305 305 305 305 304 302 301 302 302 302 302 302 303 303 304 306 310 312 315 316 316 317 317 318 319 318 318 318 318 319 319 319 319 318 318 318 318 318 318 317 318 317 316 316 316 315 315 315 314 313 312 313 313 314 316 316 317 316 316 317 317 316 316 315 316 316 316 316 316 316 315 315 315 312 310 309 308 307 307 307 306 305 304 303 302
304 304 305 305 304 303 302 303 302 302 303 303 303 303 303 304 305 307 310 312 314 316 317 317 318 318 319 319 318 319 319 319 319 318 318 318 318 318 317 317 318 317 317 316 315 314 314 315 314 312 312 313 315 315 316 317 317 316 316 315 315 315 316 316 317 317 317 317 317 317 316 316 316 314 311 309 307 307 307 306 305 304 303 302 302
303 303 304 305 304 303 303 303 303 303 303 303 304 304 303 304 304 305 306 307 309 311 313 316 318 318 319 319 318 318 317 318 318 317 317 317 317 317 317 317 318 317 317 316 315 314 314 315 314 312 313 315 316 316 317 317 315 313 311 309 308 310 311 314 316 317 317 318 318 317 317 317 316 315 313 310 308 307 307 306 305 304 302 302 302
300 301 303 304 304 303 303 304 304 303 303 303 304 304 304 303 303 304 304 305 305 306 308 313 315 317 317 317 317 317 317 317 317 317 318 317 317 317 317 318 318 317 316 316 315 315 315 314 314 314 315 316 317 317 317 314 311 310 308 306 306 310 312 314 315 315 316 316 317 317 317 316 315 315 313 311 308 307 306 304 304 303 301 301 301
298 299 299 299 300 302 302 302 303 302 301 302 303 303 304 304 304 304 304 304 304 304 305 308 311 313 315 315 316 317 317 317 318 317 317 317 317 317 317 317 317 316 316 316 316 315 315 316 315 316 316 316 317 316 315 312 310 310 308 305 306 310 312 313 313 314 314 314 314 314 314 314 313 312 311 309 307 306 305 304 302 302 301 301 301
299 299 297 297 298 299 299 300 302 301 300 301 301 302 303 303 304 304 304 304 304 304 304 304 306 308 310 312 314 316 318 318 318 317 317 317 316 316 317 317 316 316 317 317 317 317 317 317 317 316 316 316 316 315 312 311 311 310 308 306 306 308 308 309 311 311 312 312 312 312 311 311 310 309 308 307 305 305 305 303 302 301 300 300 300
297 297 296 296 296 297 298 298 300 300 299 300 300 300 301 302 302 303 304 304 303 304 304 304 304 305 306 308 310 313 315 316 317 316 316 316 317 316 316 317 317 318 318 318 318 317 317 316 316 316 316 316 315 313 312 311 311 310 309 308 307 307 307 307 309 309 310 311 311 311 310 309 307 306 304 304 304 304 304 304 302 300 300 299 299
295 296 296 296 296 297 297 297 298 298 298 299 299 299 300 301 301 301 303 304 304 304 304 304 304 304 304 305 307 309 312 314 315 315 315 316 317 317 316 317 318 318 317 316 316 317 316 316 316 316 316 314 313 312 312 311 311 310 309 308 308 308 307 307 308 309 309 309 309 309 309 307 305 303 302 303 304 303 304 304 302 300 299 299 299
295 296 296 296 297 297 297 297 297 297 298 298 298 298 299 300 300 300 301 303 303 304 304 304 304 304 304 304 306 308 310 311 313 314 315 315 316 316 316 317 317 316 315 315 315 315 315 315 315 314 314 313 312 312 312 311 311 310 309 308 308 308 308 307 307 307 307 307 307 307 306 305 304 304 303 304 303 303 303 303 302 300 299 299 298
296 296 296 296 297 297 297 297 297 297 297 297 298 298 298 298 299 299 300 301 302 303 303 304 303 304 304 304 305 306 307 308 309 310 311 311 310 311 312 312 312 312 312 313 312 312 312 313 313 312 312 312 312 312 311 311 310 310 309 308 308 307 307 307 306 306 305 305 305 304 303 303 303 303 303 302 302 301 301 301 300 299 298 297 296
296 296 296 296 296 296 297 297 297 297 297 297 298 298 298 298 298 298 299 300 301 301 302 302 303 304 304 303 303 304 306 307 307 307 307 307 307 307 307 308 308 308 308 309 310 311 311 312 312 312 312 312 312 311 310 310 310 309 308 307 307 307 306 306 305 304 304 303 303 302 301 300 301 300 300 300 300 299 299 298 298 297 297 296 295
295 295 295 295 295 295 296 296 297 297 297 297 298 297 298 298 297 298 298 299 299 300 301 301 302 303 304 304 303 304 305 306 307 307 306 306 306 306 306 306 306 306 305 306 307 308 309 310 311 312 312 312 311 311 310 310 309 309 308 307 307 306 305 305 304 302 302 301 301 300 300 299 299 299 299 298 298 298 297 297 296 296 295 294 294
294 295 294 294 294 294 295 295 295 296 296 297 297 297 297 298 297 297 298 298 298 299 300 300 301 301 302 303 304 304 303 304 305 306 307 307 306 306 306 306 306 305 305 304 304 304 305 306 307 308 308 309 309 309 309 310 310 309 309 308 307 306 305 304 303 301 301 300 299 299 298 298 297 298 297 297 297 296 296 295 294 294 293 293 293
293 293 293 293 293 293 293 293 293 294 294 295 296 296 297 297 297 297 298 298 298 298 299 299 300 300 301 301 303 304 303 303 304 305 305 306 306 306 307 306 305 305 304 304 304 304 304 304 304 304 304 305 306 307 308 309 309 309 308 307 306 305 304 303 302 300 299 299 298 297 297 296 296 296 296 295 295 294 294 293 293 293 292 292 292
292 292 292 292 292 292 292 292 292 292 293 293 294 296 296 296 297 297 298 298 298 298 298 299 299 300 300 301 302 303 303 303 303 303 304 304 304 305 306 307 306 306 305 305 305 305 304 304 303 303 304 304 305 306 308 309 308 307 306 305 304 303 302 301 300 299 298 297 297 296 296 296 295 295 295 294 294 293 293 292 292 292 292 292 291
291 291 291 290 290 291 290 290 291 291 291 292 293 294 295 295 296 296 297 297 297 298 298 298 299 299 299 300 301 301 302 302 303 303 304 304 303 303 304 306 306 306 306 306 305 305 304 304 304 304 304 305 306 306 307 306 305 304 303 302 301 300 299 298 298 298 297 296 296 295 295 295 294 294 293 293 293 292 292 292 292 292 291 291 291
290 290 290 289 290 290 290 290 290 290 290 290 291 292 293 294 294 294 295 295 296 296 297 297 298 299 299 300 300 301 301 302 302 303 303 303 304 303 303 304 304 304 304 304 305 305 305 304 304 304 305 305 306 305 304 303 302 300 300 299 298 297 296 296 296 296 296 295 295 295 294 293 293 293 292 292 292 292 291 291 291 291 291 290 290
289 289 289 289 289 289 289 289 289 289 289 290 290 290 291 291 292 292 293 293 293 294 295 296 297 298 299 299 299 300 301 301 301 301 302 302 303 304 304 303 303 303 303 303 304 304 305 304 304 304 304 304 304 303 302 301 300 299 298 297 296 296 295 295 295 295 295 294 294 293 293 293 292 292 292 291 291 291 291 291 290 290 290 290 289
289 289 289 289 289 289 289 289 289 289 289 289 289 290 290 290 290 290 291 291 292 293 294 295 297 298 298 299 299 299 300 301 301 300 300 301 302 302 302 302 303 303 303 302 303 304 303 303 304 304 304 303 303 303 303 302 300 299 297 296 295 295 294 294 294 294 294 294 293 293 292 292 292 291 291 291 291 290 290 290 290 290 289 289 288
289 289 289 289 289 289 289 289 289 289 289 289 289 289 289 289 290 290 290 291 292 293 294 296 296 297 298 299 299 299 300 300 301 301 300 300 300 299 299 300 301 302 302 302 302 303 302 303 303 303 303 303 302 303 304 302 300 299 298 296 295 294 294 294 294 294 294 293 292 292 292 291 291 291 291 290 290 290 290 289 289 289 288 288 287
289 289 289 289 289 289 289 289 289 289 289 289 289 289 289 289 289 290 291 292 293 294 295 296 296 297 297 298 299 299 299 300 300 301 300 300 300 299 299 299 300 301 301 302 302 302 302 302 301 302 303 303 304 304 303 300 298 296 295 295 295 294 295 294 294 293 293 292 292 291 291 291 291 290 290 290 290 289 289 289 288 287 287 287 287
290 290 289 289 289 289 289 289 289 289 290 290 290 290 290 290 290 290 290 291 292 293 294 294 295 296 297 297 298 299 299 300 300 300 300 300 299 299 299 300 300 301 301 301 301 301 301 302 302 303 303 303 303 303 301 299 296 294 293 293 294 294 294 294 293 292 292 292 292 291 291 290 290 290 290 289 289 289 288 287 287 287 287 287 287
Wind_Speed
6 10 15 16 17 17 18 22 24 23 21 23 25 25 24 26 30 32 31 31 30 28 26 23 21 19 17 16 13 10 8 6 5 4 3 4 7 8 7 6 5 4 4 5 5 5 5 5 4 5 6 5 5 6 9 11 12 11 9 9 9 9 9 8 9 9 8 6 4 4 2 1 1 1 2 2 3 2 2 3 4 4 5 2 3
6 7 12 14 13 14 17 20 24 24 22 23 25 23 23 26 32 36 35 33 29 26 24 22 21 19 17 15 12 10 7 5 4 3 3 5 8 10 9 7 7 6 5 5 5 6 5 4 4 5 4 3 4 6 8 10 9 7 8 7 7 7 6 6 7 6 5 5 5 4 2 0 1 1 1 2 3 1 0 0 2 3 4 1 1
6 6 9 13 12 13 16 19 23 25 23 24 24 24 24 28 32 34 33 30 27 24 23 21 19 17 15 14 12 10 8 5 5 5 5 7 9 11 12 10 9 9 9 8 8 8 6 5 5 6 5 4 6 7 7 7 7 6 7 7 6 5 4 4 6 6 5 7 5 2 1 1 1 1 1 2 3 3 4 3 2 1 2 2 2
6 6 7 10 12 14 16 19 20 21 21 23 24 25 27 30 32 31 29 27 26 24 22 20 19 16 13 13 11 9 9 8 7 7 6 7 8 9 10 10 10 10 10 9 8 8 7 6 6 6 5 3 3 4 4 5 5 5 6 6 5 5 5 4 5 4 4 6 4 2 2 1 1 1 2 3 4 7 7 7 6 5 4 3 3
6 6 7 9 11 13 16 18 20 21 23 24 26 28 30 31 30 29 27 26 25 23 21 19 19 17 14 13 11 9 10 9 8 8 7 6 6 6 6 6 6 6 6 7 8 8 7 6 6 6 5 3 2 2 3 4 5 5 5 5 5 5 6 5 4 3 2 5 5 3 2 1 1 1 1 4 6 9 11 10 10 11 10 8 6
6 6 6 7 9 13 15 19 21 23 26 29 30 32 32 31 29 26 25 25 24 21 19 19 19 18 16 15 13 12 11 9 8 9 7 6 5 5 4 4 3 3 4 5 6 8 8 7 6 6 5 3 3 4 5 5 5 5 5 5 5 5 5 5 6 4 3 4 5 5 3 2 2 2 1 2 5 9 11 12 13 13 11 9 8
6 5 5 6 10 13 15 20 24 26 30 31 32 33 33 31 29 27 25 23 22 20 17 17 19 18 17 17 16 15 13 10 9 8 6 5 4 4 4 5 5 4 5 5 6 7 7 6 5 5 5 4 5 6 6 5 5 5 6 6 7 6 5 5 8 8 6 5 5 7 6 5 4 3 2 1 2 5 8 11 15 15 12 11 13
6 6 6 7 10 13 15 21 26 27 29 31 33 35 31 27 23 21 22 22 20 19 17 17 19 19 19 18 17 16 14 13 11 8 6 5 5 4 4 5 6 5 5 5 5 7 6 4 2 3 5 5 6 7 6 6 6 6 6 7 7 6 4 5 8 9 8 7 7 7 8 6 6 6 5 4 3 1 3 7 12 17 19 20 22
6 6 7 6 10 13 14 18 23 24 27 29 26 19 11 13 12 8 13 19 20 19 18 18 19 20 20 19 18 16 14 14 12 10 8 7 6 5 5 5 5 4 5 5 6 6 6 4 3 4 6 7 8 8 8 8 6 5 6 6 6 6 5 4 7 9 10 10 11 11 11 11 12 11 10 9 6 3 1 2 6 13 19 22 25
6 6 6 6 9 12 11 14 17 19 22 18 10 8 11 15 16 11 13 16 17 17 18 19 20 20 20 20 18 17 16 15 14 12 10 9 7 7 6 5 4 4 5 6 7 7 6 6 5 7 8 9 10 10 9 8 7 7 7 7 7 8 8 7 9 11 11 11 12 12 12 12 11 10 10 10 9 6 4 0 2 5 8 13 18
6 5 5 6 8 9 7 7 7 10 12 9 10 9 14 22 25 21 19 15 10 9 13 17 19 19 20 19 18 17 17 17 16 14 12 11 10 9 8 6 6 7 8 9 9 9 7 7 7 8 8 9 9 9 8 8 8 9 10 10 10 11 12 13 13 14 13 13 12 11 11 10 9 9 10 10 8 6 4 1 2 3 4 8 12
6 5 5 7 9 10 10 8 6 4 3 8 13 15 17 22 25 23 21 16 10 8 10 14 16 17 18 18 16 16 16 17 17 16 15 14 13 11 10 9 9 10 11 11 10 9 8 8 8 8 8 8 9 9 8 8 9 11 12 13 14 14 15 15 16 16 14 14 13 11 11 11 11 11 10 10 10 8 6 3 3 4 4 6 9
6 5 6 7 7 10 12 11 8 7 7 4 11 16 18 21 23 21 19 13 11 10 11 14 16 16 16 16 15 14 14 15 15 16 17 16 15 13 11 11 12 12 12 11 10 9 8 9 9 9 8 8 8 8 9 10 11 11 12 12 13 14 14 14 15 15 13 13 13 12 11 11 12 11 9 10 10 10 10 6 5 6 5 6 9
6 6 7 6 7 9 7 4 1 3 7 8 10 14 18 21 22 21 19 20 20 17 14 13 13 13 14 16 15 13 13 13 13 14 16 16 15 13 12 12 12 12 12 10 9 8 8 9 10 9 9 8 8 9 9 10 10 9 10 10 11 12 12 12 13 13 12 12 11 12 12 12 12 11 10 11 11 12 12 8 5 6 7 8 9
6 7 7 5 9 7 6 10 10 12 10 14 16 17 19 23 26 26 27 27 23 22 20 15 10 9 12 15 15 13 12 12 11 12 14 15 15 13 12 12 12 12 11 10 9 9 10 11 11 11 11 11 11 11 11 11 10 9 10 11 11 11 11 12 12 12 13 13 12 12 13 13 13 13 13 14 14 14 15 12 8 6 5 7 7
6 7 7 7 9 7 18 19 17 19 14 15 21 22 22 25 27 27 29 29 27 28 28 24 19 15 13 16 17 14 11 9 9 11 12 13 13 13 12 13 13 12 12 11 10 10 11 12 12 13 13 13 13 13 12 12 11 11 12 12 12 12 12 13 13 13 13 13 13 13 14 15 15 15 15 15 15 15 15 15 14 10 6 3 4
5 5 6 7 10 17 24 22 19 19 18 18 22 23 24 25 26 26 27 30 32 33 32 30 27 19 15 17 17 13 9 8 6 10 13 13 12 12 12 12 13 13 13 12 11 11 11 11 12 12 13 13 12 12 12 12 12 12 13 14 14 13 13 14 13 13 13 13 13 13 14 15 16 15 15 15 14 14 13 13 14 14 12 6 1
4 3 2 1 4 9 13 15 16 17 18 19 20 22 24 24 26 29 30 32 34 33 29 28 25 19 15 16 17 11 7 9 6 11 17 16 14 13 12 12 13 13 14 13 13 12 12 11 10 11 11 11 11 11 12 11 10 11 13 14 14 14 15 15 14 13 13 13 13 13 13 14 15 14 13 12 11 11 10 10 11 11 13 10 5
6 5 5 4 4 4 3 7 11 14 16 15 15 19 22 25 27 30 31 32 32 29 27 29 29 23 19 19 21 18 15 15 12 12 19 20 17 15 13 12 12 13 13 14 13 12 12 11 10 9 9 9 9 9 10 9 9 10 11 12 12 12 13 15 14 13 13 12 13 13 12 12 12 10 10 9 9 9 9 9 10 9 11 11 9
5 4 4 4 7 8 5 3 5 7 7 6 9 14 18 22 26 28 29 27 26 26 28 31 33 30 27 26 24 22 22 22 19 18 20 22 20 17 14 12 12 13 13 13 13 12 12 11 10 9 9 8 8 8 8 7 7 8 8 9 10 9 10 11 12 11 11 11 12 13 12 11 10 8 7 7 7 8 9 9 9 9 10 10 10
5 4 4 4 7 10 9 8 6 4 2 3 6 10 13 17 21 24 25 25 24 25 29 32 32 30 29 29 23 23 26 26 25 23 21 22 23 19 16 14 12 14 14 13 14 13 12 12 11 10 10 10 9 8 8 7 6 6 6 6 7 6 6 7 8 9 9 10 10 10 11 10 9 8 7 6 6 6 7 8 8 8 9 9 9
5 4 4 5 7 11 11 10 9 8 7 6 7 7 9 12 17 19 21 23 25 27 30 31 32 30 29 29 24 25 31 31 28 27 24 23 23 22 20 17 14 14 15 15 15 14 13 12 13 12 11 11 11 10 8 8 7 6 5 5 5 5 4 4 5 6 6 7 7 7 8 8 8 7 6 5 4 4 4 6 6 6 7 8 8
6 6 5 6 9 13 13 12 11 9 7 6 6 6 8 9 14 17 19 21 24 28 30 30 32 31 30 31 27 26 33 33 27 26 25 24 24 24 23 21 18 16 17 17 16 15 15 13 13 14 13 12 11 11 10 9 8 7 6 6 5 5 5 4 4 4 5 5 5 5 5 6 6 5 4 3 3 3 2 3 4 4 5 7 7
7 6 6 9 13 16 16 15 13 10 7 4 2 3 6 8 12 15 18 20 22 25 27 28 30 30 30 34 33 29 31 29 22 22 24 24 24 24 24 23 22 21 20 20 19 17 17 16 14 14 14 13 12 11 10 11 11 10 9 8 7 6 6 6 5 5 5 6 6 5 5 5 5 4 4 3 2 2 1 1 2 3 4 5 6
8 7 8 10 12 13 14 14 15 14 11 7 4 1 4 7 9 12 15 18 20 22 25 26 28 28 27 31 35 33 28 24 22 24 25 24 23 23 24 24 23 22 20 20 20 19 18 16 15 14 14 13 12 11 11 12 14 14 13 11 10 9 8 8 8 8 7 8 8 8 7 7 7 6 6 6 5 4 3 2 1 1 2 4 5
9 9 9 9 10 12 14 15 16 16 15 13 11 8 4 4 7 9 11 14 17 19 22 25 26 25 24 26 30 30 25 22 24 26 25 23 22 22 23 24 23 22 19 17 16 16 14 12 11 12 12 11 11 11 12 13 14 16 16 14 13 12 11 11 10 11 10 10 11 11 10 10 10 9 9 8 8 7 6 4 3 2 1 1 3
9 9 10 10 10 11 14 17 18 18 19 18 16 14 11 6 3 4 8 11 14 17 21 24 26 25 24 24 25 25 23 20 22 25 23 21 21 21 22 23 23 22 20 18 16 14 13 9 7 8 10 11 13 14 15 14 14 17 18 18 16 15 14 13 13 13 13 13 13 13 14 14 14 12 11 11 10 9 8 6 5 4 3 1 1
10 10 10 10 9 10 14 18 20 21 22 22 20 17 15 12 9 5 1 5 9 14 17 20 22 23 24 24 23 22 21 19 20 23 23 21 20 19 18 19 20 20 19 19 17 13 13 10 8 7 10 15 18 17 17 17 17 18 18 18 17 17 15 15 16 16 16 16 16 16 17 17 18 17 15 14 13 12 10 9 8 6 4 3 1
11 10 10 10 9 10 14 19 22 24 25 25 24 21 17 14 12 9 7 3 1 6 11 15 18 20 21 22 21 21 20 19 18 20 22 22 21 19 16 15 18 19 20 19 14 9 12 12 8 8 12 17 20 19 17 16 16 16 15 14 15 15 16 16 16 17 17 18 19 19 20 21 21 21 19 18 16 14 13 12 11 9 7 5 3
9 9 9 9 9 11 16 20 23 25 25 25 25 24 21 17 13 10 9 7 4 2 6 10 13 16 18 20 20 20 21 21 21 22 24 24 22 20 19 18 21 22 23 21 16 15 18 17 13 13 17 21 23 23 19 16 14 13 12 11 11 12 13 14 14 15 17 18 19 20 21 22 23 23 23 21 20 17 15 13 11 9 8 7 5
8 8 8 8 9 13 17 19 21 23 24 25 25 26 25 22 18 14 11 8 6 3 5 8 11 13 15 17 19 20 22 24 25 26 27 26 24 23 22 22 25 25 24 22 21 24 26 24 21 22 26 27 27 25 20 16 14 11 8 7 7 8 9 10 12 13 15 16 17 17 19 20 22 23 24 24 23 20 17 15 12 9 9 8 5
8 8 8 8 9 11 14 16 18 20 23 24 24 26 27 25 23 19 14 10 7 5 1 6 10 12 13 15 18 19 20 21 20 20 22 23 22 22 23 25 28 27 23 21 22 25 26 26 27 27 27 27 25 20 16 12 8 4 4 4 5 6 7 9 11 12 14 15 16 16 17 17 19 21 23 23 23 21 18 16 13 10 9 7 6
7 7 8 7 8 11 13 15 17 18 20 21 22 24 24 24 24 22 18 15 12 9 5 3 7 10 10 11 14 17 18 19 20 20 20 20 20 21 25 28 27 25 21 19 21 24 25 25 26 26 25 23 18 14 10 6 3 2 5 6 5 5 5 5 6 8 10 12 13 14 14 15 16 17 19 21 22 21 19 15 12 10 9 8 6
7 7 7 9 10 13 15 16 17 19 20 21 22 22 21 21 21 22 21 20 19 16 13 8 5 9 11 9 10 14 16 18 20 21 21 22 23 23 24 25 23 20 18 17 19 21 22 23 22 22 21 19 15 11 8 5 0 5 6 6 5 5 6 6 6 6 6 6 8 9 10 11 12 13 15 16 19 21 19 15 12 11 10 8 7
6 6 8 11 14 15 17 17 17 18 20 21 21 21 20 20 20 19 19 19 20 21 20 17 13 8 7 8 10 13 14 16 18 18 20 22 23 22 21 21 20 19 18 17 18 19 19 19 18 17 16 15 12 10 7 3 2 4 6 7 8 8 9 9 10 10 9 8 7 6 7 8 9 10 11 12 17 19 16 12 11 10 10 9 9
6 7 10 13 15 15 16 17 16 17 18 19 19 19 18 19 19 19 18 16 17 19 20 20 19 16 12 8 7 11 14 16 17 16 17 19 21 21 20 19 20 20 18 17 17 17 17 15 14 13 12 11 11 9 5 2 1 3 5 6 9 10 11 11 11 10 10 10 8 6 5 5 6 7 9 12 14 14 12 10 10 10 10 10 9
9 11 13 14 15 16 16 17 16 17 18 18 17 17 17 17 17 18 17 15 14 16 17 18 18 17 17 13 8 7 10 14 16 16 16 18 19 20 20 20 20 19 17 16 15 15 14 12 11 12 12 12 10 8 6 4 2 1 3 5 7 8 9 10 10 10 9 9 7 5 3 2 3 6 10 11 9 9 9 9 10 10 9 8 6
11 13 15 16 17 17 18 18 17 17 18 19 18 18 17 17 16 16 15 15 13 12 12 14 15 16 16 13 8 5 3 7 9 10 11 13 14 15 16 16 17 16 14 13 13 13 13 13 13 13 13 11 10 9 7 5 3 2 3 4 5 6 6 6 7 7 7 6 5 3 2 1 2 5 7 7 8 9 9 9 9 8 7 5 4
10 12 14 15 16 17 18 19 19 19 19 19 19 19 18 17 17 16 14 14 12 10 10 12 12 13 13 11 9 6 2 4 8 10 11 12 13 14 14 15 16 16 17 16 15 15 15 15 14 13 13 12 11 9 7 5 3 3 3 4 4 4 4 3 3 3 3 3 3 3 4 3 2 3 4 4 5 5 5 5 5 5 4 4 3
10 13 13 13 14 15 16 18 19 19 20 20 20 20 20 19 19 17 15 14 13 13 13 13 13 11 9 7 8 8 3 3 7 11 13 14 14 14 15 16 16 17 17 17 16 16 16 15 14 13 12 11 10 8 7 5 3 3 3 3 3 3 2 1 1 1 2 3 4 5 5 5 4 4 4 4 4 3 2 3 2 2 2 2 2
12 14 15 15 15 15 15 17 18 19 20 20 20 20 20 20 20 19 17 15 15 15 15 14 14 13 10 7 5 6 4 2 4 6 9 12 14 15 15 14 15 16 16 17 17 16 16 15 13 11 10 9 8 6 5 3 2 1 1 1 1 1 1 1 2 3 3 4 5 6 6 5 4 4 3 3 2 2 1 0 1 1 1 2 3
15 16 17 18 18 19 18 19 20 21 21 21 20 20 20 20 20 21 19 18 17 17 17 16 15 14 13 11 8 4 2 4 6 6 7 8 10 12 14 14 14 15 16 16 16 15 14 12 11 8 7 6 4 2 2 2 2 2 1 1 1 0 1 2 3 4 5 6 6 6 6 5 4 3 3 2 1 1 2 3 2 3 3 3 4
19 18 19 19 19 20 20 21 21 22 22 21 20 20 20 19 20 21 20 20 20 18 18 18 17 15 15 13 12 10 6 2 5 5 5 6 7 9 12 13 15 15 16 16 14 12 11 10 8 6 4 2 1 2 4 4 4 4 4 3 3 2 3 3 4 5 6 7 7 7 6 5 4 2 2 1 2 3 3 3 2 2 2 3 5
21 22 23 22 21 21 22 22 22 21 21 21 19 19 20 20 21 21 20 21 21 20 19 19 18 17 16 15 15 14 13 10 7 5 5 5 5 7 10 13 14 14 15 15 13 12 10 9 7 5 4 4 5 6 7 7 7 7 6 5 4 4 4 4 4 6 7 8 8 7 5 4 2 2 2 2 2 3 3 2 2 1 2 4 6
20 22 24 23 23 23 24 25 24 21 19 19 18 18 19 22 22 22 23 23 23 23 23 21 19 18 17 16 16 17 17 16 13 12 12 11 9 8 9 12 14 14 14 14 13 12 11 10 9 9 8 9 10 11 11 11 9 8 6 5 5 5 4 4 5 7 9 8 7 6 4 3 2 3 3 3 3 3 3 2 1 2 4 6 7
18 20 21 22 23 23 24 25 27 26 22 20 19 18 20 23 25 25 26 26 25 25 25 24 22 19 17 17 17 17 17 18 17 15 15 15 14 12 10 10 11 12 13 13 14 14 14 13 12 12 12 13 14 14 14 12 11 9 8 7 6 6 5 6 7 9 9 8 7 5 4 4 4 4 4 3 3 3 2 2 3 4 5 7 9
18 20 20 20 21 21 21 23 26 27 26 24 23 22 22 23 24 25 26 27 26 26 25 25 24 22 19 18 18 18 17 17 20 20 18 16 15 15 16 19 19 18 18 19 19 19 18 17 16 15 15 15 15 16 15 14 12 11 9 7 6 7 7 8 9 10 9 8 7 7 6 6 5 4 4 3 3 2 2 3 4 5 7 8 9
20 21 20 19 19 20 22 23 24 25 25 26 27 27 26 25 24 23 23 25 27 26 25 24 25 24 22 20 19 19 17 16 19 23 22 20 20 18 18 21 25 26 26 25 24 23 21 19 18 18 17 17 17 18 18 16 14 12 10 9 8 8 9 9 9 10 10 9 9 8 8 7 6 5 4 3 2 2 3 5 6 7 8 8 9
22 22 21 21 22 23 24 24 24 23 24 25 27 28 28 27 25 24 22 23 25 25 24 24 23 23 22 20 18 18 17 15 16 19 22 23 25 25 22 22 24 24 22 21 21 20 19 18 18 18 19 21 21 20 18 16 14 12 10 10 10 10 9 9 9 10 11 11 11 10 9 7 5 3 3 2 3 4 5 6 7 7 7 8 9
23 23 23 23 23 24 25 25 25 24 24 25 26 27 27 27 26 24 23 22 23 23 23 23 22 20 20 18 16 16 16 14 12 13 15 17 20 21 21 22 23 22 20 20 18 16 16 17 17 17 17 17 16 15 16 16 15 13 11 10 10 10 9 10 11 11 11 12 13 11 8 5 4 3 2 3 4 5 6 6 6 7 8 10 11
23 23 23 23 23 24 25 26 26 26 26 26 27 27 27 27 26 24 23 24 23 23 23 24 23 21 20 18 16 14 13 12 10 9 10 11 13 13 15 19 21 21 20 19 16 14 15 16 16 17 18 16 12 13 16 18 17 16 14 12 11 10 10 10 12 12 12 12 11 9 7 5 3 3 3 4 4 4 5 6 7 8 10 12 14
Wind_Direction
161 178 196 192 191 193 192 189 186 186 186 184 181 183 184 175 170 171 171 171 173 175 179 181 180 176 171 166 159 149 131 104 80 67 81 80 78 88 97 101 105 124 167 202 198 179 164 156 171 196 215 229 236 226 213 206 202 199 197 191 181 171 162 160 166 165 162 157 153 165 168 210 298 353 338 2 23 7 330 304 288 266 265 295 335
147 170 194 190 187 190 190 188 188 188 186 185 184 188 189 179 170 166 166 168 169 173 177 179 179 176 169 160 151 145 136 108 89 85 93 95 90 94 100 99 94 97 111 127 138 141 138 136 152 169 185 205 208 207 204 207 209 208 207 200 190 182 172 175 176 173 175 157 138 141 131 313 284 350 321 13 34 40 115 328 277 261 253 244 41
163 174 191 188 180 181 187 189 192 192 188 185 186 189 186 178 170 165 165 167 169 171 174 176 177 174 165 155 150 146 136 119 109 108 109 110 108 105 105 104 99 96 93 92 98 103 100 95 112 134 135 145 179 192 200 212 221 224 221 221 222 203 187 188 184 188 175 137 112 102 112 99 107 99 102 66 50 70 80 68 47 331 281 275 302
186 178 185 190 177 172 183 190 193 193 190 187 188 190 184 177 173 168 166 166 166 167 168 169 168 165 161 152 149 143 134 132 126 119 116 110 109 106 104 103 99 99 99 96 95 94 92 86 91 105 105 112 170 191 198 209 212 207 204 213 222 197 182 188 192 203 176 138 118 79 65 61 76 3 37 60 68 76 71 59 54 49 43 23 346
196 191 187 189 176 167 176 186 190 191 192 191 191 189 185 180 176 171 168 166 163 163 163 166 164 160 155 147 143 139 135 139 135 128 124 114 108 103 95 91 88 92 99 105 111 109 103 98 95 97 96 99 115 135 154 166 171 168 172 183 182 177 187 192 191 207 193 174 165 127 82 49 210 268 33 61 67 74 69 56 54 53 48 42 28
187 199 192 176 167 163 170 182 187 190 193 194 194 191 187 183 178 172 169 166 163 162 162 166 166 163 159 153 149 146 142 144 141 132 129 123 113 105 95 87 78 80 93 107 121 123 116 112 110 108 103 101 106 125 145 148 150 156 162 171 175 186 199 190 183 181 159 156 155 144 146 162 166 159 126 87 64 72 71 60 54 50 42 34 31
177 184 182 168 165 164 172 182 187 191 193 194 192 190 190 187 180 173 170 166 164 164 166 169 168 167 168 165 160 158 155 153 152 145 141 135 125 114 103 99 97 98 106 111 123 131 126 117 115 119 116 109 115 126 138 143 150 159 166 178 184 191 196 179 169 163 150 143 134 125 124 133 146 141 127 133 89 69 64 56 53 52 48 46 52
170 171 183 176 172 174 181 185 189 192 191 192 191 191 191 184 174 169 167 167 167 168 174 178 175 171 170 167 163 164 162 158 160 162 163 162 153 140 121 110 106 107 113 115 128 135 130 120 120 140 136 125 122 124 128 136 145 157 167 178 182 178 174 169 163 159 157 155 140 120 115 115 113 110 100 104 123 100 36 38 53 65 69 68 70
151 164 191 181 172 177 184 189 192 193 191 193 190 181 155 132 133 135 150 164 173 178 182 183 181 177 174 169 163 161 159 155 158 162 165 170 162 146 137 128 118 119 126 124 131 136 137 139 137 143 142 134 129 128 127 129 131 141 153 164 173 165 156 155 151 149 149 143 135 125 117 107 98 94 91 89 91 98 81 352 45 69 73 70 69
149 164 184 170 164 170 181 190 192 196 196 189 159 112 104 134 156 159 153 162 172 183 186 183 183 181 177 172 163 158 155 153 154 156 160 166 162 150 144 142 139 138 139 137 139 141 143 146 135 132 136 132 130 128 124 125 124 124 127 131 143 146 143 142 135 134 137 133 132 129 119 111 102 91 83 82 84 89 104 161 33 65 74 67 62
156 150 140 121 122 133 150 173 186 203 193 147 117 137 158 166 172 169 164 164 158 169 178 176 182 186 184 178 167 160 159 158 158 157 158 160 155 149 146 147 149 147 144 142 142 140 137 138 136 134 135 133 134 132 128 127 122 118 116 116 122 127 127 129 129 126 126 124 123 121 114 107 102 93 84 83 89 94 105 114 39 67 84 66 62
141 124 109 95 88 86 79 65 42 14 65 121 146 159 163 170 174 166 155 151 140 141 159 166 176 185 185 182 174 168 167 165 164 162 161 159 152 148 147 147 149 148 146 144 141 141 139 142 145 143 141 140 139 137 130 125 121 117 114 111 112 116 118 119 122 123 124 122 115 107 101 95 90 89 86 83 87 93 102 101 52 70 82 61 65
123 110 95 81 66 57 48 48 52 47 53 130 165 156 163 177 175 155 136 146 161 155 166 177 180 184 186 184 181 176 174 171 167 166 167 166 161 157 155 154 155 154 151 148 145 147 151 152 154 153 153 153 146 139 129 123 123 119 114 110 109 112 116 117 119 121 119 115 110 103 98 94 88 84 81 81 84 84 86 91 76 75 81 67 66
110 105 100 96 83 64 25 4 87 165 157 183 190 166 168 175 167 155 159 185 193 179 176 177 176 187 190 185 184 181 179 175 171 171 172 174 171 168 167 164 164 162 157 155 152 155 161 162 164 164 162 160 152 144 138 133 133 128 121 117 115 116 118 118 118 118 112 106 106 104 100 97 94 90 85 82 81 75 69 76 99 88 73 67 68
101 100 107 107 90 86 270 263 254 245 201 181 193 183 174 172 171 176 183 188 186 178 175 165 160 186 194 189 186 184 182 179 178 179 180 181 178 177 180 177 175 175 169 164 164 162 160 159 159 157 152 149 145 141 142 145 144 137 127 119 117 119 117 112 110 108 105 103 103 104 102 101 99 97 92 85 80 74 66 65 81 99 77 55 52
113 113 122 116 110 181 241 244 243 246 227 196 195 186 179 178 179 186 188 185 185 187 185 182 186 196 198 192 185 181 183 180 186 195 193 192 189 184 189 189 184 185 182 176 173 166 158 155 152 148 145 143 141 138 138 142 143 136 130 123 119 119 114 110 110 107 102 100 102 103 103 104 104 100 95 89 83 79 73 65 64 75 87 70 30
120 135 150 148 166 205 226 230 230 233 225 212 200 189 185 184 182 183 185 189 194 195 192 190 192 192 186 181 175 172 170 160 187 224 216 204 201 197 196 197 192 190 189 182 176 171 163 159 153 148 148 146 144 143 140 140 141 137 132 127 124 122 117 114 115 113 106 102 104 105 104 105 107 105 99 95 89 83 80 74 67 67 75 90 94
53 36 38 82 188 215 230 238 241 239 232 222 205 194 192 190 186 185 188 196 198 194 186 181 178 171 163 169 176 180 180 169 194 250 239 218 208 206 203 204 199 193 193 188 182 179 173 169 165 156 154 152 150 149 147 143 140 137 133 129 128 126 122 119 119 118 114 111 110 109 110 111 111 110 103 98 93 88 84 83 79 71 70 80 104
41 27 14 6 31 28 311 269 261 251 240 226 204 195 194 194 193 193 196 199 194 183 172 170 173 170 169 185 195 196 201 202 202 227 234 224 215 212 208 209 208 201 200 196 191 188 183 181 179 172 167 163 158 156 154 151 144 140 137 134 133 133 128 125 124 123 121 120 119 117 119 120 118 115 107 98 95 94 93 90 88 82 73 76 89
43 39 22 11 39 43 32 2 308 275 252 218 188 188 192 194 196 197 197 193 181 172 172 180 184 183 187 199 205 202 205 213 214 219 229 225 219 217 211 212 216 211 209 206 200 199 196 194 193 190 190 184 176 170 166 164 157 149 146 140 140 141 136 130 128 128 128 128 125 123 124 125 124 121 110 101 99 98 97 97 96 90 81 76 76
37 26 20 17 43 50 47 44 33 17 29 128 150 172 185 192 197 199 199 191 181 178 184 190 189 186 192 198 205 214 218 224 224 225 230 225 221 222 216 214 221 220 218 214 209 206 206 207 208 206 204 201 196 190 184 182 177 167 161 154 151 151 145 138 134 132 134 137 134 129 128 126 123 120 115 108 105 104 100 99 98 89 81 74 61
47 23 18 20 38 50 50 46 48 49 58 87 111 144 169 186 196 199 200 196 190 190 192 193 188 184 189 194 199 216 224 230 232 229 226 224 224 226 220 215 219 224 225 222 216 211 209 213 217 216 215 211 209 206 203 203 203 200 192 182 176 171 168 164 156 149 146 149 152 143 136 134 131 125 119 115 110 109 106 101 97 82 72 68 52
48 29 19 20 31 43 46 39 37 36 34 55 92 130 154 177 193 195 197 196 194 196 196 193 187 184 189 197 203 216 225 230 236 232 226 224 225 227 226 220 215 219 225 224 220 214 214 218 220 222 223 220 217 218 222 225 226 228 225 217 214 209 209 212 203 190 178 174 178 168 152 149 150 147 137 134 132 123 116 101 92 74 61 61 49
35 30 21 26 31 37 39 34 32 34 22 16 51 136 160 172 185 190 194 194 193 197 198 195 191 189 194 202 207 217 226 229 234 235 232 228 225 227 231 226 219 217 218 219 220 218 219 220 221 224 225 224 226 230 238 245 248 249 248 243 240 239 240 242 241 236 225 218 217 210 196 182 175 185 191 189 194 183 169 118 94 78 59 57 45
26 27 28 31 31 30 32 32 35 41 39 35 40 85 177 180 186 189 193 195 195 198 199 199 198 196 198 205 211 218 226 228 229 233 236 231 225 226 230 230 227 221 216 216 216 217 221 225 226 229 231 233 235 235 238 247 256 259 258 257 257 255 258 260 258 255 252 248 248 243 232 218 207 210 216 217 220 217 211 197 148 109 69 54 40
25 25 27 27 25 23 25 28 33 39 42 45 50 58 90 161 191 199 200 202 204 206 206 206 206 206 205 209 216 221 225 228 229 233 235 229 224 224 224 227 229 225 218 212 208 210 215 223 233 235 240 251 250 242 242 245 254 263 263 261 262 262 265 267 266 264 263 263 265 263 256 243 234 231 229 226 224 220 216 210 196 174 133 66 37
27 28 28 25 22 17 18 23 28 33 39 43 47 51 57 69 108 192 207 208 209 212 212 211 211 213 215 216 219 221 223 227 232 234 232 225 222 223 221 222 223 220 214 207 204 206 205 217 259 256 251 269 268 259 261 262 267 271 266 261 261 262 264 267 269 271 269 269 271 271 268 260 254 251 246 239 233 227 221 214 207 198 186 178 47
33 32 29 27 24 15 18 23 26 30 36 40 44 47 50 52 52 51 144 208 212 213 212 211 212 214 217 219 221 222 224 226 228 227 223 219 219 216 210 211 212 210 207 200 199 205 209 225 271 272 257 267 269 264 267 275 283 281 269 262 263 264 267 269 269 270 270 270 270 270 270 267 262 259 254 249 243 237 228 217 211 210 208 208 172
38 34 31 32 27 20 22 25 27 29 32 35 38 40 43 47 50 50 50 53 218 220 216 215 215 215 217 219 220 220 221 221 217 211 207 206 205 195 190 200 208 204 194 183 180 198 209 215 251 280 261 256 259 264 272 283 290 285 273 271 271 271 272 272 270 270 269 269 268 268 269 270 267 263 257 252 247 242 238 230 220 215 217 220 209
39 36 35 36 32 29 29 27 27 27 28 31 34 35 38 40 43 48 52 55 63 150 197 205 211 216 219 219 218 216 215 214 210 201 195 196 195 188 190 205 211 203 193 190 203 224 223 223 247 261 244 237 247 261 274 287 289 282 278 278 275 273 271 269 268 268 265 264 263 263 264 267 269 264 257 252 246 240 238 237 232 226 226 226 216
34 34 32 33 34 33 32 30 28 26 27 30 32 35 40 40 37 38 40 43 50 89 164 182 194 206 213 212 209 208 208 207 204 197 192 191 194 198 202 206 206 200 198 207 220 223 223 226 229 225 225 235 248 259 273 283 279 274 279 280 277 277 273 271 271 270 269 268 265 264 264 266 269 267 259 251 243 237 233 229 226 229 232 231 228
32 30 28 28 28 29 28 27 27 27 28 29 30 34 38 38 37 36 34 36 32 16 292 197 196 201 206 205 199 196 195 195 191 185 182 184 192 203 207 202 199 202 209 219 219 212 214 221 219 218 228 240 248 258 270 272 261 268 309 312 301 287 275 272 273 273 276 277 276 274 272 268 268 269 264 253 241 232 226 220 219 223 224 226 236
36 33 31 28 25 27 26 23 23 25 26 25 27 32 34 34 37 40 42 47 43 26 359 276 235 227 224 212 198 188 184 186 186 184 188 200 212 220 214 206 206 213 220 222 215 210 213 220 223 226 232 237 244 256 255 234 210 356 351 341 328 313 302 295 289 285 284 285 286 285 282 278 274 271 267 257 240 223 213 209 211 213 213 219 233
34 31 29 25 23 27 27 27 27 24 22 23 24 26 29 29 33 39 44 46 46 42 34 16 316 266 256 245 215 195 186 188 192 194 200 214 225 226 215 209 213 216 214 210 209 211 216 222 227 230 230 234 241 238 213 185 53 1 9 12 8 8 14 14 7 355 340 327 316 306 298 294 287 278 271 254 228 210 202 201 205 209 216 226 235
25 23 19 16 18 21 20 23 28 26 22 21 19 18 21 24 25 30 35 37 39 41 39 34 25 354 298 272 242 219 207 205 208 208 208 215 223 224 216 212 214 212 209 207 209 215 222 229 234 235 235 234 225 204 186 175 355 7 25 33 32 32 29 25 22 19 13 7 358 340 321 308 294 280 263 230 205 199 200 204 208 215 225 231 235
15 14 10 9 12 15 14 16 22 26 24 19 14 12 14 18 18 18 22 26 31 35 34 30 30 27 13 341 280 243 231 228 225 220 216 221 226 226 220 214 209 206 207 212 216 223 229 232 233 231 224 212 196 186 188 207 332 9 20 31 33 30 27 23 21 19 16 12 8 357 338 317 289 252 210 192 193 199 206 213 218 223 230 233 235
10 11 10 9 9 8 9 9 11 17 19 15 10 5 4 7 7 7 10 11 17 27 28 24 25 26 22 11 339 279 245 236 234 232 231 229 226 220 215 211 208 209 213 218 218 218 218 215 210 204 195 188 187 192 201 204 195 20 29 38 35 29 27 23 18 16 15 13 11 4 356 329 254 207 188 188 200 206 211 224 229 227 228 230 232
10 9 7 7 7 2 0 0 1 3 6 6 3 359 357 359 360 359 359 357 0 12 18 17 19 19 19 18 7 338 270 221 215 215 214 209 200 196 195 195 196 195 192 191 189 185 184 184 183 181 181 187 196 200 197 190 168 110 62 52 46 39 33 26 20 17 16 17 24 33 47 76 202 196 195 206 213 214 223 237 236 226 221 219 216
11 9 4 2 2 357 354 355 356 355 354 353 351 350 349 350 352 352 351 349 347 345 348 353 0 6 13 23 26 14 337 192 165 156 159 161 158 156 157 159 162 162 160 163 167 168 168 171 176 180 186 194 199 196 187 178 157 120 84 66 58 46 38 36 29 25 33 47 62 82 92 105 152 169 177 188 193 204 219 222 218 212 202 196 207
6 6 2 360 358 354 352 351 350 347 345 343 343 341 337 336 338 338 341 345 340 326 322 326 328 336 348 8 30 35 26 203 176 161 159 161 158 152 150 151 151 150 151 155 160 164 167 171 177 184 189 192 194 189 181 170 153 131 109 91 72 51 50 67 82 99 105 112 118 117 111 112 121 128 134 141 144 154 169 169 182 203 195 200 251
0 360 358 355 352 349 346 342 340 337 335 335 337 334 329 327 326 322 324 335 336 324 316 313 310 310 312 317 355 34 51 137 189 184 173 169 168 165 161 160 157 154 151 152 154 157 159 161 166 171 176 181 183 182 178 170 150 124 106 89 61 52 67 189 191 169 148 140 139 136 132 130 131 130 130 131 131 134 144 202 295 307 308 308 310
353 354 353 349 343 339 335 332 331 330 328 330 331 327 323 322 317 312 313 321 325 323 318 312 304 298 295 293 296 321 30 112 149 180 185 174 171 174 174 171 167 164 160 157 154 151 146 143 143 146 154 164 174 191 236 264 269 271 266 273 288 251 190 205 196 172 158 151 148 150 150 148 147 143 132 113 78 33 359 348 348 345 337 328 320
343 343 342 340 333 328 324 322 322 322 322 324 325 320 317 315 309 306 309 315 317 317 316 313 306 298 291 282 276 279 284 202 151 166 186 182 176 182 183 178 173 170 166 160 155 149 142 136 134 138 146 159 209 248 254 254 251 247 244 248 254 235 207 205 196 176 165 159 156 157 154 150 148 135 101 49 19 8 359 359 1 345 326 317 316
333 331 331 331 326 320 317 315 315 316 316 316 317 314 311 307 302 301 305 308 309 310 310 308 305 301 295 283 269 264 264 257 245 245 245 225 200 192 187 182 180 178 172 166 161 157 153 149 150 160 179 198 216 225 226 226 225 224 225 230 231 216 203 196 179 165 163 163 162 159 153 147 133 91 63 48 45 44 43 49 47 2 332 322 320
322 322 324 324 321 317 316 313 312 313 313 310 307 304 299 296 296 298 301 302 303 305 305 304 302 300 299 293 278 263 256 255 254 255 257 255 242 217 189 177 177 178 176 171 169 168 167 168 175 185 194 202 207 209 208 208 209 210 209 211 210 198 184 174 162 156 159 161 161 156 147 132 111 95 93 91 85 84 83 73 33 336 326 322 321
315 317 318 318 315 313 312 310 309 311 310 307 303 296 290 289 291 294 295 297 299 300 300 299 297 295 295 297 292 277 259 249 247 250 255 255 248 238 229 219 204 193 190 186 182 182 184 185 189 193 197 200 200 200 201 201 201 203 201 194 187 174 161 156 154 155 159 159 153 148 143 134 126 119 113 106 96 88 70 13 341 332 329 329 331
312 314 314 313 310 307 306 304 304 305 307 306 302 295 290 289 290 290 291 293 294 294 294 293 291 289 289 289 291 289 277 257 245 243 245 248 247 240 231 225 216 206 201 197 192 190 191 192 194 196 198 199 199 197 198 199 199 198 194 187 179 167 158 155 154 154 156 156 150 146 144 140 133 123 110 96 87 72 24 356 352 348 343 343 341
312 313 313 310 306 304 303 301 298 300 303 301 298 296 294 292 290 289 289 288 287 287 288 286 283 282 283 283 282 284 283 272 255 243 237 241 248 247 238 230 223 213 205 198 194 193 193 193 196 198 197 196 197 199 201 202 202 200 194 187 179 170 162 158 155 152 151 150 149 146 142 136 130 121 111 91 69 43 14 3 358 353 348 346 344
311 312 311 308 305 304 303 301 298 298 299 296 294 294 294 293 291 290 287 283 280 280 281 279 277 277 277 277 275 273 274 278 270 252 239 237 241 244 248 244 231 217 212 209 202 199 199 198 197 199 197 194 196 201 204 204 202 201 200 193 184 175 167 157 153 154 152 150 149 147 144 141 133 119 101 71 36 19 11 4 359 357 357 356 355
310 310 309 307 306 305 304 302 300 298 296 293 292 292 292 291 290 288 285 279 273 273 275 274 274 274 272 271 271 268 265 268 270 257 242 232 227 227 231 231 222 218 226 230 223 217 217 209 201 198 197 194 194 197 197 197 195 192 191 189 181 176 168 157 153 155 155 154 153 149 144 140 128 102 76 51 30 16 11 12 13 14 9 3 359
308 308 307 307 305 303 301 298 297 297 295 292 290 289 289 288 286 283 280 274 269 267 269 270 269 268 267 267 268 265 257 251 252 254 245 228 213 207 212 216 216 216 217 216 215 221 222 211 198 193 190 187 184 184 186 189 188 183 181 180 174 171 166 159 158 159 156 156 156 150 139 131 120 100 76 51 35 26 27 26 20 14 8 1 357